HULIANWANG DIGUI-121

Last updated on Fri Dec 19 2025 00:02:10 GMT+0000 (Coordinated Universal Time)

1 67061U 25295C 25349.71692468 -.00000001 00000+0 66638-4 0 9993 2 67061 50.0012 359.6606 0013268 256.3366 103.6071 14.25729079 549
UTC large
Height (km)
Speed (km/s)
/
Latitude / Longitude
Inclination (degrees)
Orbital Period (minutes)
Azimuth
Elevation
Range (km)
Doppler Factor

Next 0 passes for location: London (51.5072 / 0.1276)

Sorry there are no passes over London.